This is the latest recevied weather packets stored in our database for station/object E20YUC-1. If no packets are shown the sender has not sent any weather packets the latest 10 day(s).
| Time | Temp. | Humidity | Pressure | Rain* | Wind** | Luminosity | Snow |
|---|---|---|---|---|---|---|---|
| 1787656245 | 32.78° C | 61% | 993.9 hPa | 0 mm | 0 m/s | - | - |
| 1787655943 | 32.78° C | 61% | 993.8 hPa | 0 mm | 0 m/s | - | - |
| 1787655643 | 32.78° C | 60% | 994 hPa | 0 mm | 4.02 m/s, 0° | - | - |
| 1787655043 | 33.33° C | 60% | 993.8 hPa | 0 mm | 1.79 m/s, 0° | - | - |
| 1787654745 | 33.33° C | 60% | 993.7 hPa | 0 mm | 4.47 m/s, 0° | - | - |
| 1787654443 | 33.33° C | 60% | 993.6 hPa | 0 mm | 1.79 m/s, 0° | - | - |
| 1787654143 | 33.33° C | 59% | 993.7 hPa | 0 mm | 4.02 m/s, 0° | - | - |
| 1787653543 | 33.33° C | 59% | 993.6 hPa | 0 mm | 4.47 m/s, 0° | - | - |
| 1787653244 | 33.89° C | 59% | 993.6 hPa | 0 mm | 3.58 m/s, 0° | - | - |
| 1787652943 | 33.89° C | 58% | 993.7 hPa | 0 mm | 2.68 m/s, 0° | - | - |
| 1787652342 | 33.89° C | 58% | 993.6 hPa | 0 mm | 4.47 m/s, 0° | - | - |
| 1787652043 | 33.89° C | 58% | 993.6 hPa | 0 mm | 2.24 m/s, 0° | - | - |
| 1787651744 | 33.89° C | 58% | 993.6 hPa | 0 mm | 2.68 m/s, 0° | - | - |
| 1787651142 | 33.89° C | 57% | 993.7 hPa | 0 mm | 4.47 m/s, 0° | - | - |
| 1787650542 | 33.89° C | 57% | 993.7 hPa | 0 mm | 4.47 m/s, 0° | - | - |
| 1787650244 | 33.89° C | 57% | 993.8 hPa | 0 mm | 4.02 m/s, 0° | - | - |
| 1787649942 | 34.44° C | 57% | 993.7 hPa | 0 mm | 3.58 m/s, 0° | - | - |
| 1787649342 | 34.44° C | 56% | 993.5 hPa | 0 mm | 4.47 m/s, 0° | - | - |
| 1787649042 | 34.44° C | 56% | 993.6 hPa | 0 mm | 4.02 m/s, 0° | - | - |
| 1787648744 | 34.44° C | 56% | 993.7 hPa | 0 mm | 1.79 m/s, 22° | - | - |
| 1787648442 | 34.44° C | 56% | 993.8 hPa | 0 mm | 4.47 m/s, 0° | - | - |
| 1787647842 | 35° C | 56% | 993.8 hPa | 0 mm | 4.47 m/s, 0° | - | - |
| 1787647542 | 35° C | 56% | 993.8 hPa | 0 mm | 10.28 m/s, 0° | - | - |
| 1787647243 | 35° C | 56% | 993.8 hPa | 0 mm | 3.58 m/s, 22° | - | - |
| 1787646942 | 35° C | 56% | 993.7 hPa | 0 mm | 7.6 m/s, 22° | - | - |
* Rain latest hour (hover to see other rain measurements)
** Current wind speed in m/s (hover to see current wind gust speed)